map of VCP home
Great Circle Mapper logo
VCP - Airport
Location
City:  Campinas, São Paulo, Brazil
Near (Alt.):São Paulo
Name:Viracopos-Campinas International Airport
ICAO / IATA:SBKP / VCP

Details
Type:Airport (Aerodrome, Airfield)
Use:Public/Civil, International (customs port of entry)
Latitude:23°00'27"S (-23.007382)
Longitude:47°08'04"W (-47.134521)
Datum:WGS 1984
Elevation:2170 ft (661 m)
Variation:20.87°W (WMM2015 magnetic declination)
-0.12° annual change
Runways:1
Longest:10630 × 148 ft (3240 × 45 m), paved

Time
Time Zone:UTC-3 (DST-2)
Local Time:

Weather
METAR:SBKP 261500Z 15011KT 9999 BKN035 23/15 Q1020
TAF:SBKP 260823Z 2612/2712 15008KT CAVOK TX27/2618Z TN15/2710Z
BECMG 2616/2618 9999 SCT040
BECMG 2620/2622 14012KT CAVOK
BECMG 2701/2703 12005KT
RMK PHN

Related Locations
Nearby:
Farthest:MMD: 12213 mi / 19655 km
Minami Daito Jima, Okinawa, JP

Find:

   beyond  
but within

Other Information
Maps:
NOTAMs:
Links:
Sources:

  
flag of Brazil
flag of São Paulo
  

Sectional Chart

Flight Planning
at skyvector.com

Satellite Image

Google Maps Satellite View

 

Copyright © 2004-2015 Karl L. Swartz. All rights reserved.
The Great Circle Mapper name and logo are trademarks of the Great Circle Mapper.
All other trademarks mentioned herein belong to their respective owners.
Please see credits for attibutions and further copyright information.

  Follow gcmap on Facebook Follow gcmap on Twitter Follow gcmap on Google+

hCard Microformat

Geo Microformat